| time (UTC) | temp F | wind direction | speed knots | gust knots | rain 1hr in | rain 24hr in | rain mn in | humidity % | barometer mb |
| 20260831213345 | 54 | 57 | 1.7 | 2.6 | 0.00 | 0.00 | 0.00 | 71 | 1015.6 |
| 20260831212845 | 54 | 360 | 0.9 | 1.7 | 0.00 | 0.00 | 0.00 | 71 | 1015.2 |
| 20260831212345 | 54 | 26 | 0.9 | 2.6 | 0.00 | 0.00 | 0.00 | 71 | 1015.2 |
| 20260831211846 | 54 | 21 | 0.9 | 1.7 | 0.00 | 0.00 | 0.00 | 71 | 1015.2 |
| 20260831211349 | 54 | 352 | 0.0 | 1.7 | 0.00 | 0.00 | 0.00 | 70 | 1015.2 |
| 20260831210845 | 54 | 54 | 0.9 | 1.7 | 0.00 | 0.00 | 0.00 | 70 | 1015.2 |
| 20260831210346 | 55 | 355 | 1.7 | 1.7 | 0.00 | 0.00 | 0.00 | 69 | 1015.2 |
| 20260831205845 | 55 | 351 | 0.9 | 0.9 | 0.00 | 0.00 | 0.00 | 70 | 1015.6 |
| 20260831205345 | 55 | 342 | 1.7 | 2.6 | 0.00 | 0.00 | 0.00 | 70 | 1015.2 |
| 20260831204845 | 55 | 334 | 1.7 | 2.6 | 0.00 | 0.00 | 0.00 | 69 | 1015.2 |
| 20260831204346 | 55 | 8 | 1.7 | 4.3 | 0.00 | 0.00 | 0.00 | 69 | 1015.2 |
| 20260831203848 | 55 | 9 | 0.9 | 1.7 | 0.00 | 0.00 | 0.00 | 69 | 1015.6 |
| 20260831203345 | 55 | 17 | 1.7 | 4.3 | 0.00 | 0.00 | 0.00 | 69 | 1015.2 |
| 20260831202845 | 55 | 20 | 0.9 | 4.3 | 0.00 | 0.00 | 0.00 | 69 | 1015.6 |
| 20260831202346 | 55 | 59 | 0.9 | 2.6 | 0.00 | 0.00 | 0.00 | 70 | 1015.6 |
| 20260831201845 | 55 | 33 | 0.9 | 0.9 | 0.00 | 0.00 | 0.00 | 70 | 1015.6 |
| 20260831201345 | 55 | 24 | 1.7 | 1.7 | 0.00 | 0.00 | 0.00 | 70 | 1015.6 |
| 20260831200845 | 55 | 358 | 0.0 | 2.6 | 0.00 | 0.00 | 0.00 | 70 | 1015.6 |
| 20260831200346 | 55 | 25 | 0.9 | 1.7 | 0.00 | 0.00 | 0.00 | 70 | 1015.6 |
| 20260831195847 | 56 | 350 | 0.9 | 1.7 | 0.00 | 0.00 | 0.00 | 69 | 1015.6 |
| 20260831195347 | 56 | 359 | 0.9 | 1.7 | 0.00 | 0.00 | 0.00 | 68 | 1015.6 |
| 20260831194845 | 56 | 5 | 0.9 | 2.6 | 0.00 | 0.00 | 0.00 | 68 | 1015.6 |
| 20260831194346 | 56 | 360 | 0.9 | 1.7 | 0.00 | 0.00 | 0.00 | 68 | 1015.6 |
| 20260831193847 | 56 | 8 | 0.9 | 1.7 | 0.00 | 0.00 | 0.00 | 68 | 1015.9 |
| 20260831193346 | 56 | 342 | 1.7 | 4.3 | 0.00 | 0.00 | 0.00 | 68 | 1015.6 |
| 20260831192846 | 55 | 9 | 0.9 | 4.3 | 0.00 | 0.00 | 0.00 | 69 | 1015.9 |
| 20260831192345 | 55 | 351 | 0.9 | 2.6 | 0.00 | 0.00 | 0.00 | 69 | 1015.6 |
| 20260831191845 | 56 | 329 | 1.7 | 2.6 | 0.00 | 0.00 | 0.00 | 68 | 1015.9 |
| 20260831191345 | 56 | 2 | 0.9 | 1.7 | 0.00 | 0.00 | 0.00 | 68 | 1015.9 |
| 20260831190845 | 56 | 351 | 1.7 | 4.3 | 0.00 | 0.00 | 0.00 | 67 | 1015.9 |
| 20260831190348 | 56 | 348 | 0.9 | 2.6 | 0.00 | 0.00 | 0.00 | 67 | 1015.9 |
| 20260831185847 | 56 | 355 | 1.7 | 5.2 | 0.00 | 0.00 | 0.00 | 66 | 1015.9 |
| 20260831185345 | 56 | 1 | 3.5 | 5.2 | 0.00 | 0.00 | 0.00 | 66 | 1015.9 |
| 20260831184845 | 57 | 349 | 1.7 | 2.6 | 0.00 | 0.00 | 0.00 | 66 | 1015.9 |
| 20260831184345 | 57 | 348 | 3.5 | 5.2 | 0.00 | 0.00 | 0.00 | 65 | 1015.9 |
| 20260831183846 | 57 | 347 | 1.7 | 7.0 | 0.00 | 0.00 | 0.00 | 65 | 1015.9 |
| 20260831183348 | 57 | 332 | 2.6 | 5.2 | 0.00 | 0.00 | 0.00 | 64 | 1015.9 |
| 20260831182846 | 58 | 345 | 2.6 | 5.2 | 0.00 | 0.00 | 0.00 | 64 | 1015.9 |
| 20260831182348 | 58 | 18 | 4.3 | 6.1 | 0.00 | 0.00 | 0.00 | 63 | 1015.9 |
| 20260831181845 | 58 | 21 | 3.5 | 7.0 | 0.00 | 0.00 | 0.00 | 63 | 1016.3 |
| 20260831181345 | 58 | 22 | 2.6 | 6.1 | 0.00 | 0.00 | 0.00 | 63 | 1016.3 |
| 20260831180845 | 58 | 331 | 2.6 | 5.2 | 0.00 | 0.00 | 0.00 | 63 | 1016.6 |
| 20260831180345 | 58 | 357 | 2.6 | 6.1 | 0.00 | 0.00 | 0.00 | 63 | 1016.3 |
| 20260831175845 | 58 | 4 | 3.5 | 7.0 | 0.00 | 0.00 | 0.00 | 63 | 1016.6 |
| 20260831175345 | 58 | 6 | 1.7 | 7.0 | 0.00 | 0.00 | 0.00 | 64 | 1016.6 |
| 20260831174846 | 57 | 340 | 3.5 | 6.1 | 0.00 | 0.00 | 0.00 | 65 | 1016.9 |
| 20260831174346 | 57 | 23 | 2.6 | 6.1 | 0.00 | 0.00 | 0.00 | 65 | 1016.9 |
| 20260831173846 | 56 | 43 | 2.6 | 6.1 | 0.00 | 0.00 | 0.00 | 66 | 1017.3 |
| 20260831173347 | 56 | 348 | 3.5 | 5.2 | 0.00 | 0.00 | 0.00 | 67 | 1017.3 |
| 20260831172846 | 56 | 334 | 2.6 | 2.6 | 0.00 | 0.00 | 0.00 | 67 | 1017.3 |
| 20260831172345 | 56 | 355 | 2.6 | 5.2 | 0.00 | 0.00 | 0.00 | 68 | 1017.3 |
| 20260831171845 | 56 | 354 | 3.5 | 4.3 | 0.00 | 0.00 | 0.00 | 68 | 1017.6 |
| 20260831171347 | 56 | 42 | 2.6 | 5.2 | 0.00 | 0.00 | 0.00 | 68 | 1017.6 |
| 20260831170846 | 55 | 70 | 1.7 | 4.3 | 0.00 | 0.00 | 0.00 | 70 | 1017.6 |
| 20260831170346 | 54 | 359 | 1.7 | 5.2 | 0.00 | 0.00 | 0.00 | 73 | 1017.9 |
| 20260831165847 | 52 | 344 | 2.6 | 4.3 | 0.00 | 0.00 | 0.00 | 78 | 1017.9 |
| 20260831165345 | 51 | 353 | 0.9 | 1.7 | 0.00 | 0.00 | 0.00 | 79 | 1017.9 |
| 20260831164846 | 51 | 355 | 0.0 | 1.7 | 0.00 | 0.00 | 0.00 | 80 | 1017.9 |
| 20260831164346 | 51 | 355 | 0.0 | 0.9 | 0.00 | 0.00 | 0.00 | 80 | 1018.3 |
| 20260831163845 | 51 | 354 | 0.9 | 0.9 | 0.00 | 0.00 | 0.00 | 80 | 1017.9 |
| 20260831163345 | 51 | 346 | 0.9 | 1.7 | 0.00 | 0.00 | 0.00 | 80 | 1018.3 |
| 20260831162846 | 51 | 353 | 0.9 | 1.7 | 0.00 | 0.00 | 0.00 | 80 | 1018.3 |
| 20260831162346 | 51 | 356 | 0.9 | 1.7 | 0.00 | 0.00 | 0.00 | 79 | 1018.3 |
| 20260831161846 | 51 | 336 | 1.7 | 1.7 | 0.00 | 0.00 | 0.00 | 79 | 1018.6 |
| 20260831161346 | 52 | 352 | 0.9 | 1.7 | 0.00 | 0.00 | 0.00 | 78 | 1018.6 |
| 20260831160846 | 52 | 342 | 1.7 | 1.7 | 0.00 | 0.00 | 0.00 | 78 | 1018.6 |
| 20260831160346 | 52 | 346 | 0.9 | 0.9 | 0.00 | 0.00 | 0.00 | 78 | 1018.3 |
| 20260831155846 | 52 | 5 | 1.7 | 1.7 | 0.00 | 0.00 | 0.00 | 78 | 1018.6 |
| 20260831155346 | 52 | 350 | 0.9 | 1.7 | 0.00 | 0.00 | 0.00 | 78 | 1018.6 |
| 20260831154846 | 53 | 342 | 1.7 | 1.7 | 0.00 | 0.00 | 0.00 | 77 | 1019.0 |
| 20260831154345 | 53 | 335 | 1.7 | 1.7 | 0.00 | 0.00 | 0.00 | 77 | 1019.0 |
| 20260831153845 | 53 | 360 | 1.7 | 1.7 | 0.00 | 0.00 | 0.00 | 77 | 1019.0 |
| 20260831153345 | 53 | 347 | 1.7 | 1.7 | 0.00 | 0.00 | 0.00 | 76 | 1018.6 |
| 20260831152845 | 53 | 338 | 2.6 | 2.6 | 0.00 | 0.00 | 0.00 | 76 | 1019.0 |
| 20260831152346 | 53 | 352 | 0.9 | 1.7 | 0.00 | 0.00 | 0.00 | 76 | 1019.0 |
| 20260831151845 | 53 | 3 | 1.7 | 2.6 | 0.00 | 0.00 | 0.00 | 76 | 1019.0 |
| 20260831151345 | 53 | 351 | 0.9 | 2.6 | 0.00 | 0.00 | 0.00 | 77 | 1019.0 |
| 20260831150845 | 53 | 354 | 0.9 | 1.7 | 0.00 | 0.00 | 0.00 | 76 | 1019.0 |
| 20260831150346 | 53 | 347 | 2.6 | 1.7 | 0.00 | 0.00 | 0.00 | 77 | 1019.3 |
| 20260831145846 | 53 | 347 | 0.9 | 2.6 | 0.00 | 0.00 | 0.00 | 77 | 1019.3 |
| 20260831145348 | 53 | 349 | 0.9 | 1.7 | 0.00 | 0.00 | 0.00 | 76 | 1019.3 |
| 20260831144845 | 53 | 347 | 1.7 | 2.6 | 0.00 | 0.00 | 0.00 | 76 | 1019.3 |
| 20260831143859 | 54 | 11 | 1.7 | 1.7 | 0.00 | 0.00 | 0.00 | 76 | 1019.6 |
| 20260831143346 | 54 | 359 | 0.9 | 1.7 | 0.00 | 0.00 | 0.00 | 76 | 1019.3 |
| 20260831142846 | 54 | 360 | 1.7 | 2.6 | 0.00 | 0.00 | 0.00 | 76 | 1019.3 |
| 20260831142345 | 54 | 12 | 1.7 | 2.6 | 0.00 | 0.00 | 0.00 | 76 | 1019.6 |
| 20260831141845 | 54 | 360 | 1.7 | 1.7 | 0.00 | 0.00 | 0.00 | 76 | 1019.6 |
| 20260831141345 | 53 | 343 | 0.9 | 1.7 | 0.00 | 0.00 | 0.00 | 77 | 1019.6 |
| 20260831140846 | 53 | 351 | 0.9 | 1.7 | 0.00 | 0.00 | 0.00 | 77 | 1019.6 |
| 20260831140345 | 53 | 356 | 1.7 | 1.7 | 0.00 | 0.00 | 0.00 | 78 | 1019.6 |
| 20260831135846 | 53 | 355 | 0.9 | 1.7 | 0.00 | 0.00 | 0.00 | 78 | 1020.0 |
| 20260831135347 | 53 | 356 | 0.9 | 1.7 | 0.00 | 0.00 | 0.00 | 78 | 1020.0 |
| 20260831134846 | 53 | 356 | 0.0 | 0.9 | 0.00 | 0.00 | 0.00 | 76 | 1020.0 |
| 20260831134346 | 54 | 356 | 0.9 | 2.6 | 0.00 | 0.00 | 0.00 | 76 | 1020.0 |
| 20260831133846 | 54 | 360 | 0.9 | 1.7 | 0.00 | 0.00 | 0.00 | 76 | 1020.0 |
| 20260831133346 | 54 | 354 | 0.9 | 1.7 | 0.00 | 0.00 | 0.00 | 76 | 1020.0 |
| 20260831132846 | 53 | 353 | 1.7 | 2.6 | 0.00 | 0.00 | 0.00 | 77 | 1020.0 |
| 20260831132345 | 54 | 333 | 1.7 | 1.7 | 0.00 | 0.00 | 0.00 | 77 | 1020.0 |
| 20260831131846 | 54 | 343 | 2.6 | 2.6 | 0.00 | 0.00 | 0.00 | 77 | 1020.0 |
| 20260831131345 | 54 | 351 | 1.7 | 1.7 | 0.00 | 0.00 | 0.00 | 77 | 1020.3 |
| 20260831130845 | 53 | 347 | 1.7 | 1.7 | 0.00 | 0.00 | 0.00 | 78 | 1020.3 |
| 20260831130347 | 53 | 341 | 2.6 | 2.6 | 0.00 | 0.00 | 0.00 | 78 | 1020.3 |
| 20260831125846 | 53 | 345 | 1.7 | 1.7 | 0.00 | 0.00 | 0.00 | 77 | 1020.3 |
| 20260831125346 | 53 | 345 | 0.9 | 1.7 | 0.00 | 0.00 | 0.00 | 78 | 1020.3 |
| 20260831124845 | 53 | 332 | 0.9 | 1.7 | 0.00 | 0.00 | 0.00 | 78 | 1020.7 |
| 20260831124346 | 53 | 333 | 1.7 | 1.7 | 0.00 | 0.00 | 0.00 | 79 | 1020.3 |
| 20260831123845 | 53 | 349 | 0.9 | 0.9 | 0.00 | 0.00 | 0.00 | 79 | 1020.7 |
| 20260831123346 | 54 | 347 | 0.9 | 0.9 | 0.00 | 0.00 | 0.00 | 79 | 1020.3 |
| 20260831122845 | 54 | 18 | 0.9 | 0.9 | 0.00 | 0.00 | 0.00 | 79 | 1020.3 |
| 20260831122346 | 54 | 64 | 0.0 | 0.9 | 0.00 | 0.00 | 0.00 | 78 | 1020.3 |
| 20260831121846 | 55 | 68 | 1.7 | 2.6 | 0.00 | 0.00 | 0.00 | 77 | 1020.3 |
| 20260831121348 | 55 | 60 | 1.7 | 1.7 | 0.00 | 0.00 | 0.00 | 76 | 1020.3 |
| 20260831120846 | 56 | 61 | 0.9 | 1.7 | 0.00 | 0.00 | 0.00 | 75 | 1020.7 |
| 20260831120350 | 56 | 58 | 2.6 | 2.6 | 0.00 | 0.00 | 0.00 | 74 | 1020.7 |
| 20260831115845 | 56 | 50 | 1.7 | 2.6 | 0.00 | 0.00 | 0.00 | 74 | 1021.0 |
| 20260831115345 | 56 | 54 | 1.7 | 1.7 | 0.00 | 0.00 | 0.00 | 74 | 1020.7 |
| 20260831114845 | 56 | 69 | 2.6 | 2.6 | 0.00 | 0.00 | 0.00 | 76 | 1020.7 |
| 20260831114345 | 54 | 57 | 0.9 | 1.7 | 0.00 | 0.00 | 0.00 | 81 | 1021.0 |
| 20260831113845 | 53 | 19 | 0.0 | 0.9 | 0.00 | 0.00 | 0.00 | 84 | 1021.0 |
| 20260831113345 | 52 | 330 | 0.0 | 0.0 | 0.00 | 0.00 | 0.00 | 84 | 1021.3 |
| 20260831112846 | 52 | 321 | 0.0 | 0.0 | 0.00 | 0.00 | 0.00 | 84 | 1021.3 |
| 20260831112345 | 51 | 319 | 0.0 | 0.0 | 0.00 | 0.00 | 0.00 | 84 | 1021.0 |
| 20260831111845 | 51 | 319 | 0.0 | 0.0 | 0.00 | 0.00 | 0.00 | 84 | 1021.3 |
| 20260831111347 | 51 | 319 | 0.0 | 0.0 | 0.00 | 0.00 | 0.00 | 84 | 1021.3 |
| 20260831110846 | 51 | 319 | 0.0 | 0.0 | 0.00 | 0.00 | 0.00 | 84 | 1021.3 |
| 20260831110346 | 51 | 319 | 0.0 | 0.0 | 0.00 | 0.00 | 0.00 | 84 | 1021.3 |
| 20260831105846 | 51 | 314 | 0.9 | 0.9 | 0.00 | 0.00 | 0.00 | 84 | 1021.3 |
| 20260831105347 | 52 | 314 | 0.9 | 0.9 | 0.00 | 0.00 | 0.00 | 83 | 1021.3 |
| 20260831104845 | 53 | 313 | 0.9 | 0.9 | 0.00 | 0.00 | 0.00 | 82 | 1021.3 |
| 20260831104346 | 54 | 323 | 0.0 | 0.9 | 0.00 | 0.00 | 0.00 | 79 | 1021.3 |
| 20260831103845 | 56 | 88 | 0.0 | 0.0 | 0.00 | 0.00 | 0.00 | 78 | 1021.7 |
| 20260831103346 | 57 | 98 | 0.0 | 0.0 | 0.00 | 0.00 | 0.00 | 77 | 1021.3 |
| 20260831102845 | 58 | 191 | 0.0 | 0.0 | 0.00 | 0.00 | 0.00 | 75 | 1021.3 |
| 20260831102345 | 58 | 183 | 0.9 | 0.9 | 0.00 | 0.00 | 0.00 | 76 | 1021.3 |
| 20260831101845 | 58 | 149 | 0.9 | 0.9 | 0.00 | 0.00 | 0.00 | 76 | 1021.7 |
| 20260831101346 | 58 | 148 | 0.9 | 0.0 | 0.00 | 0.00 | 0.00 | 75 | 1021.7 |
| 20260831100845 | 59 | 147 | 0.9 | 1.7 | 0.00 | 0.00 | 0.00 | 74 | 1021.3 |
| 20260831100345 | 59 | 167 | 0.9 | 1.7 | 0.00 | 0.00 | 0.00 | 75 | 1021.3 |
| 20260831095846 | 59 | 135 | 1.7 | 1.7 | 0.00 | 0.00 | 0.00 | 75 | 1021.7 |
| 20260831095348 | 59 | 146 | 0.0 | 1.7 | 0.00 | 0.00 | 0.00 | 75 | 1021.7 |
| 20260831094845 | 59 | 214 | 0.9 | 0.9 | 0.00 | 0.00 | 0.00 | 75 | 1021.7 |
| 20260831094346 | 59 | 213 | 1.7 | 1.7 | 0.00 | 0.00 | 0.00 | 78 | 1021.7 |
| 20260831093845 | 60 | 131 | 0.0 | 0.9 | 0.00 | 0.00 | 0.00 | 79 | 1021.3 |
| 20260831093345 | 60 | 131 | 0.0 | 0.0 | 0.00 | 0.00 | 0.00 | 80 | 1021.7 |
| 20260831092845 | 60 | 129 | 0.0 | 1.7 | 0.00 | 0.00 | 0.00 | 81 | 1021.7 |
| 20260831092345 | 57 | 104 | 1.7 | 2.6 | 0.00 | 0.00 | 0.00 | 84 | 1021.7 |
| 20260831091845 | 56 | 292 | 0.0 | 0.0 | 0.00 | 0.00 | 0.00 | 77 | 1021.7 |
| 20260831091346 | 57 | 309 | 0.9 | 0.9 | 0.00 | 0.00 | 0.00 | 74 | 1021.7 |
| 20260831090847 | 57 | 310 | 0.0 | 0.0 | 0.00 | 0.00 | 0.00 | 73 | 1021.7 |
| 20260831090346 | 58 | 301 | 0.9 | 0.9 | 0.00 | 0.00 | 0.00 | 72 | 1021.7 |
| 20260831085845 | 60 | 300 | 0.9 | 0.9 | 0.00 | 0.00 | 0.00 | 71 | 1021.7 |
| 20260831085345 | 61 | 229 | 0.0 | 0.0 | 0.00 | 0.00 | 0.00 | 70 | 1021.3 |
| 20260831084845 | 62 | 228 | 0.0 | 0.0 | 0.00 | 0.00 | 0.00 | 68 | 1021.3 |
| 20260831084346 | 62 | 231 | 0.9 | 0.9 | 0.00 | 0.00 | 0.00 | 68 | 1021.3 |
| 20260831083845 | 63 | 227 | 0.9 | 1.7 | 0.00 | 0.00 | 0.00 | 69 | 1021.7 |
| 20260831083345 | 63 | 185 | 0.9 | 1.7 | 0.00 | 0.00 | 0.00 | 70 | 1021.7 |
| 20260831082845 | 64 | 57 | 0.0 | 0.0 | 0.00 | 0.00 | 0.00 | 65 | 1021.7 |
| 20260831082345 | 65 | 56 | 0.0 | 0.0 | 0.00 | 0.00 | 0.00 | 62 | 1021.7 |
| 20260831081845 | 67 | 56 | 0.0 | 0.9 | 0.00 | 0.00 | 0.00 | 58 | 1021.7 |
| 20260831081345 | 68 | 57 | 0.0 | 0.9 | 0.00 | 0.00 | 0.00 | 57 | 1021.7 |
| 20260831080845 | 69 | 57 | 0.9 | 0.9 | 0.00 | 0.00 | 0.00 | 55 | 1021.7 |
| 20260831080346 | 70 | 57 | 0.9 | 0.9 | 0.00 | 0.00 | 0.00 | 53 | 1021.3 |
| 20260831075846 | 72 | 57 | 0.0 | 0.0 | 0.00 | 0.00 | 0.00 | 52 | 1021.3 |
| 20260831075345 | 73 | 57 | 0.0 | 0.0 | 0.00 | 0.00 | 0.00 | 50 | 1021.7 |
| 20260831074845 | 72 | 57 | 0.0 | 0.0 | 0.00 | 0.00 | 0.00 | 48 | 1021.7 |
| 20260831074345 | 72 | 57 | 0.0 | 0.9 | 0.00 | 0.00 | 0.00 | 45 | 1021.7 |
| 20260831073845 | 73 | 57 | 0.9 | 0.9 | 0.00 | 0.00 | 0.00 | 50 | 1021.7 |
| 20260831073346 | 74 | 47 | 1.7 | 1.7 | 0.00 | 0.00 | 0.00 | 46 | 1021.7 |
| 20260831072845 | 75 | 9 | 0.9 | 0.9 | 0.00 | 0.00 | 0.00 | 44 | 1022.0 |
| 20260831072345 | 74 | 20 | 0.9 | 0.9 | 0.00 | 0.00 | 0.00 | 43 | 1021.7 |
| 20260831071845 | 74 | 348 | 0.9 | 0.9 | 0.00 | 0.00 | 0.00 | 41 | 1021.7 |
| 20260831071345 | 74 | 4 | 0.9 | 0.9 | 0.00 | 0.00 | 0.00 | 42 | 1022.0 |
| 20260831070845 | 75 | 349 | 0.9 | 1.7 | 0.00 | 0.00 | 0.00 | 41 | 1022.0 |
| 20260831070345 | 75 | 344 | 0.9 | 1.7 | 0.00 | 0.00 | 0.00 | 42 | 1022.0 |
| 20260831065845 | 75 | 10 | 1.7 | 2.6 | 0.00 | 0.00 | 0.00 | 41 | 1021.7 |
| 20260831065346 | 75 | 351 | 1.7 | 4.3 | 0.00 | 0.00 | 0.00 | 40 | 1021.7 |
| 20260831064845 | 75 | 56 | 0.9 | 2.6 | 0.00 | 0.00 | 0.00 | 37 | 1022.0 |
| 20260831064346 | 75 | 55 | 1.7 | 2.6 | 0.00 | 0.00 | 0.00 | 37 | 1022.0 |
| 20260831063845 | 75 | 66 | 0.9 | 2.6 | 0.00 | 0.00 | 0.00 | 39 | 1022.0 |
| 20260831063345 | 75 | 4 | 1.7 | 4.3 | 0.00 | 0.00 | 0.00 | 41 | 1022.0 |
| 20260831062846 | 75 | 353 | 3.5 | 4.3 | 0.00 | 0.00 | 0.00 | 37 | 1022.0 |
| 20260831062346 | 75 | 5 | 0.9 | 2.6 | 0.00 | 0.00 | 0.00 | 40 | 1022.0 |
| 20260831061845 | 74 | 350 | 1.7 | 4.3 | 0.00 | 0.00 | 0.00 | 36 | 1022.4 |
| 20260831061345 | 75 | 32 | 0.9 | 6.1 | 0.00 | 0.00 | 0.00 | 38 | 1022.4 |
| 20260831060845 | 75 | 342 | 3.5 | 4.3 | 0.00 | 0.00 | 0.00 | 37 | 1022.4 |
| 20260831060345 | 75 | 331 | 2.6 | 7.0 | 0.00 | 0.00 | 0.00 | 35 | 1022.4 |
| 20260831055845 | 75 | 346 | 2.6 | 4.3 | 0.00 | 0.00 | 0.00 | 36 | 1022.4 |
| 20260831055345 | 75 | 335 | 4.3 | 6.1 | 0.00 | 0.00 | 0.00 | 36 | 1022.7 |
| 20260831054845 | 75 | 61 | 2.6 | 4.3 | 0.00 | 0.00 | 0.00 | 39 | 1022.4 |
| 20260831054345 | 75 | 62 | 2.6 | 5.2 | 0.00 | 0.00 | 0.00 | 38 | 1022.7 |
| 20260831053845 | 75 | 321 | 3.5 | 4.3 | 0.00 | 0.00 | 0.00 | 36 | 1022.4 |
| 20260831053346 | 75 | 339 | 1.7 | 6.1 | 0.00 | 0.00 | 0.00 | 38 | 1022.7 |
| 20260831052846 | 75 | 3 | 4.3 | 6.1 | 0.00 | 0.00 | 0.00 | 38 | 1023.0 |
| 20260831052346 | 76 | 14 | 2.6 | 2.6 | 0.00 | 0.00 | 0.00 | 40 | 1022.7 |
| 20260831051848 | 75 | 25 | 1.7 | 2.6 | 0.00 | 0.00 | 0.00 | 38 | 1022.7 |
| 20260831051346 | 76 | 15 | 4.3 | 6.1 | 0.00 | 0.00 | 0.00 | 36 | 1022.7 |
| 20260831050848 | 76 | 344 | 3.5 | 5.2 | 0.00 | 0.00 | 0.00 | 39 | 1022.7 |
| 20260831050346 | 76 | 4 | 2.6 | 2.6 | 0.00 | 0.00 | 0.00 | 41 | 1023.0 |
| 20260831045847 | 75 | 336 | 2.6 | 2.6 | 0.00 | 0.00 | 0.00 | 40 | 1023.0 |
| 20260831045346 | 75 | 17 | 3.5 | 5.2 | 0.00 | 0.00 | 0.00 | 41 | 1023.0 |
| 20260831044845 | 75 | 334 | 3.5 | 5.2 | 0.00 | 0.00 | 0.00 | 39 | 1023.4 |
| 20260831044345 | 75 | 341 | 1.7 | 5.2 | 0.00 | 0.00 | 0.00 | 42 | 1023.4 |
| 20260831043846 | 74 | 336 | 1.7 | 5.2 | 0.00 | 0.00 | 0.00 | 39 | 1023.7 |
| 20260831043345 | 74 | 61 | 5.2 | 7.0 | 0.00 | 0.00 | 0.00 | 39 | 1023.7 |
| 20260831042845 | 75 | 58 | 5.2 | 6.1 | 0.00 | 0.00 | 0.00 | 40 | 1023.7 |
| 20260831042345 | 75 | 33 | 2.6 | 5.2 | 0.00 | 0.00 | 0.00 | 38 | 1023.7 |
| 20260831041845 | 75 | 3 | 4.3 | 5.2 | 0.00 | 0.00 | 0.00 | 35 | 1023.4 |
| 20260831041353 | 75 | 23 | 2.6 | 4.3 | 0.00 | 0.00 | 0.00 | 39 | 1023.7 |
| 20260831040846 | 75 | 56 | 4.3 | 7.8 | 0.00 | 0.00 | 0.00 | 40 | 1024.0 |
| 20260831040346 | 75 | 339 | 4.3 | 6.1 | 0.00 | 0.00 | 0.00 | 39 | 1024.0 |
| 20260831035845 | 75 | 51 | 2.6 | 5.2 | 0.00 | 0.00 | 0.00 | 38 | 1024.4 |
| 20260831035345 | 75 | 26 | 1.7 | 8.7 | 0.00 | 0.00 | 0.00 | 39 | 1024.4 |
| 20260831034847 | 75 | 44 | 1.7 | 6.1 | 0.00 | 0.00 | 0.00 | 37 | 1024.4 |
| 20260831034345 | 74 | 347 | 3.5 | 7.0 | 0.00 | 0.00 | 0.00 | 37 | 1024.4 |
| 20260831033845 | 73 | 31 | 1.7 | 7.8 | 0.00 | 0.00 | 0.00 | 39 | 1024.4 |
| 20260831033345 | 74 | 343 | 3.5 | 5.2 | 0.00 | 0.00 | 0.00 | 39 | 1024.7 |
| 20260831032845 | 73 | 352 | 3.5 | 6.1 | 0.00 | 0.00 | 0.00 | 38 | 1024.7 |
| 20260831032347 | 74 | 339 | 3.5 | 7.8 | 0.00 | 0.00 | 0.00 | 42 | 1024.7 |
| 20260831031845 | 74 | 29 | 3.5 | 7.0 | 0.00 | 0.00 | 0.00 | 40 | 1024.7 |
| 20260831031345 | 74 | 99 | 2.6 | 5.2 | 0.00 | 0.00 | 0.00 | 39 | 1025.1 |
| 20260831030845 | 73 | 22 | 1.7 | 7.8 | 0.00 | 0.00 | 0.00 | 43 | 1025.4 |
| 20260831030346 | 73 | 8 | 1.7 | 6.1 | 0.00 | 0.00 | 0.00 | 40 | 1025.1 |
| 20260831025846 | 73 | 353 | 4.3 | 6.1 | 0.00 | 0.00 | 0.00 | 38 | 1025.4 |
| 20260831025345 | 73 | 346 | 3.5 | 7.0 | 0.00 | 0.00 | 0.00 | 39 | 1025.4 |
| 20260831024845 | 72 | 332 | 5.2 | 7.8 | 0.00 | 0.00 | 0.00 | 37 | 1025.7 |
| 20260831024345 | 72 | 18 | 5.2 | 8.7 | 0.00 | 0.00 | 0.00 | 38 | 1025.7 |
| 20260831023845 | 73 | 348 | 3.5 | 6.1 | 0.00 | 0.00 | 0.00 | 43 | 1025.7 |
| 20260831023345 | 72 | 67 | 2.6 | 7.8 | 0.00 | 0.00 | 0.00 | 44 | 1026.1 |
| 20260831022847 | 73 | 357 | 5.2 | 6.1 | 0.00 | 0.00 | 0.00 | 41 | 1026.1 |
| 20260831022345 | 73 | 24 | 2.6 | 6.1 | 0.00 | 0.00 | 0.00 | 42 | 1026.1 |
| 20260831021845 | 72 | 44 | 0.9 | 5.2 | 0.00 | 0.00 | 0.00 | 45 | 1026.4 |
| 20260831021346 | 72 | 59 | 0.9 | 4.3 | 0.00 | 0.00 | 0.00 | 48 | 1026.4 |
| 20260831020845 | 73 | 48 | 4.3 | 7.8 | 0.00 | 0.00 | 0.00 | 43 | 1026.4 |
| 20260831020345 | 73 | 66 | 3.5 | 7.0 | 0.00 | 0.00 | 0.00 | 45 | 1026.8 |
| 20260831015845 | 72 | 2 | 0.9 | 6.1 | 0.00 | 0.00 | 0.00 | 52 | 1026.8 |
| 20260831015345 | 71 | 22 | 2.6 | 6.1 | 0.00 | 0.00 | 0.00 | 49 | 1026.8 |
| 20260831014846 | 71 | 16 | 4.3 | 5.2 | 0.00 | 0.00 | 0.00 | 47 | 1026.8 |
| 20260831014345 | 71 | 346 | 3.5 | 5.2 | 0.00 | 0.00 | 0.00 | 50 | 1027.1 |
| 20260831013846 | 71 | 345 | 4.3 | 5.2 | 0.00 | 0.00 | 0.00 | 49 | 1027.1 |
| 20260831013345 | 71 | 351 | 3.5 | 6.1 | 0.00 | 0.00 | 0.00 | 47 | 1027.1 |
| 20260831012845 | 70 | 78 | 1.7 | 5.2 | 0.00 | 0.00 | 0.00 | 48 | 1027.1 |
| 20260831012345 | 70 | 58 | 2.6 | 4.3 | 0.00 | 0.00 | 0.00 | 49 | 1027.1 |
| 20260831011845 | 70 | 340 | 2.6 | 4.3 | 0.00 | 0.00 | 0.00 | 49 | 1027.4 |
| 20260831011345 | 70 | 350 | 0.9 | 4.3 | 0.00 | 0.00 | 0.00 | 48 | 1027.4 |
| 20260831010846 | 69 | 47 | 1.7 | 5.2 | 0.00 | 0.00 | 0.00 | 51 | 1027.4 |
| 20260831010345 | 69 | 355 | 2.6 | 5.2 | 0.00 | 0.00 | 0.00 | 50 | 1027.4 |
| 20260831005846 | 69 | 47 | 3.5 | 5.2 | 0.00 | 0.00 | 0.00 | 52 | 1027.4 |
| 20260831005345 | 68 | 353 | 1.7 | 2.6 | 0.00 | 0.00 | 0.00 | 55 | 1027.8 |
| 20260831004845 | 68 | 27 | 3.5 | 6.1 | 0.00 | 0.00 | 0.00 | 53 | 1027.4 |
| 20260831004346 | 68 | 350 | 2.6 | 4.3 | 0.00 | 0.00 | 0.00 | 54 | 1027.8 |
| 20260831003845 | 67 | 49 | 1.7 | 7.0 | 0.00 | 0.00 | 0.00 | 56 | 1027.4 |
| 20260831003345 | 67 | 47 | 4.3 | 6.1 | 0.00 | 0.00 | 0.00 | 54 | 1027.4 |
| 20260831002846 | 66 | 343 | 1.7 | 4.3 | 0.00 | 0.00 | 0.00 | 61 | 1027.4 |
| 20260831002345 | 65 | 64 | 2.6 | 6.1 | 0.00 | 0.00 | 0.00 | 60 | 1027.4 |
| 20260831001846 | 65 | 72 | 4.3 | 6.1 | 0.00 | 0.00 | 0.00 | 62 | 1027.8 |
| 20260831001346 | 64 | 49 | 3.5 | 6.1 | 0.00 | 0.00 | 0.00 | 62 | 1027.8 |
| 20260831000849 | 64 | 38 | 1.7 | 7.0 | 0.00 | 0.00 | 0.00 | 64 | 1027.8 |
| 20260831000347 | 63 | 46 | 2.6 | 6.1 | 0.00 | 0.00 | 0.00 | 66 | 1027.8 |
| 20260830235845 | 63 | 47 | 1.7 | 5.2 | 0.00 | 0.00 | 0.00 | 67 | 1027.8 |
| 20260830235345 | 62 | 49 | 1.7 | 6.1 | 0.00 | 0.00 | 0.00 | 68 | 1027.8 |
| 20260830234845 | 61 | 66 | 0.9 | 4.3 | 0.00 | 0.00 | 0.00 | 70 | 1027.8 |
| 20260830234345 | 60 | 41 | 4.3 | 6.1 | 0.00 | 0.00 | 0.00 | 68 | 1027.8 |
| 20260830233846 | 60 | 53 | 4.3 | 6.1 | 0.00 | 0.00 | 0.00 | 68 | 1027.8 |
| 20260830233346 | 59 | 72 | 3.5 | 6.1 | 0.00 | 0.00 | 0.00 | 71 | 1027.8 |
| 20260830232845 | 59 | 62 | 5.2 | 6.1 | 0.00 | 0.00 | 0.00 | 70 | 1028.1 |
| 20260830232347 | 58 | 32 | 2.6 | 4.3 | 0.00 | 0.00 | 0.00 | 72 | 1027.8 |
| 20260830231855 | 57 | 67 | 4.3 | 6.1 | 0.00 | 0.00 | 0.00 | 73 | 1027.8 |
| 20260830231345 | 57 | 66 | 3.5 | 5.2 | 0.00 | 0.00 | 0.00 | 74 | 1028.1 |
| 20260830230845 | 56 | 68 | 1.7 | 4.3 | 0.00 | 0.00 | 0.00 | 77 | 1027.8 |
| 20260830230346 | 55 | 37 | 3.5 | 5.2 | 0.00 | 0.00 | 0.00 | 76 | 1028.1 |
| 20260830225845 | 54 | 64 | 0.9 | 2.6 | 0.00 | 0.00 | 0.00 | 79 | 1027.8 |
| 20260830225345 | 53 | 52 | 2.6 | 4.3 | 0.00 | 0.00 | 0.00 | 79 | 1028.1 |
| 20260830224845 | 52 | 55 | 1.7 | 4.3 | 0.00 | 0.00 | 0.00 | 80 | 1027.8 |
| 20260830224345 | 51 | 66 | 3.5 | 4.3 | 0.00 | 0.00 | 0.00 | 80 | 1027.8 |
| 20260830223845 | 51 | 30 | 3.5 | 5.2 | 0.00 | 0.00 | 0.00 | 80 | 1027.8 |
| 20260830223345 | 51 | 64 | 1.7 | 5.2 | 0.00 | 0.00 | 0.00 | 81 | 1028.1 |
| 20260830222845 | 51 | 56 | 1.7 | 4.3 | 0.00 | 0.00 | 0.00 | 81 | 1027.8 |
| 20260830222345 | 50 | 74 | 1.7 | 4.3 | 0.00 | 0.00 | 0.00 | 81 | 1027.8 |
| 20260830221845 | 50 | 60 | 3.5 | 4.3 | 0.00 | 0.00 | 0.00 | 82 | 1027.8 |
| 20260830221345 | 50 | 36 | 2.6 | 4.3 | 0.00 | 0.00 | 0.00 | 82 | 1027.8 |
| 20260830220846 | 49 | 54 | 2.6 | 2.6 | 0.00 | 0.00 | 0.00 | 84 | 1027.8 |
| 20260830220345 | 49 | 50 | 2.6 | 2.6 | 0.00 | 0.00 | 0.00 | 85 | 1027.8 |
| 20260830215845 | 48 | 50 | 0.9 | 2.6 | 0.00 | 0.00 | 0.00 | 87 | 1027.8 |
| 20260830215345 | 47 | 60 | 1.7 | 1.7 | 0.00 | 0.00 | 0.00 | 89 | 1027.8 |
| 20260830214845 | 46 | 37 | 0.9 | 0.9 | 0.00 | 0.00 | 0.00 | 89 | 1027.8 |
| 20260830214347 | 45 | 9 | 0.0 | 0.0 | 0.00 | 0.00 | 0.00 | 89 | 1027.4 |
| 20260830213845 | 44 | 13 | 0.9 | 0.9 | 0.00 | 0.00 | 0.00 | 89 | 1027.8 |